Regional Weather Roundup
Issued by NWS Burlington, VT

Home | Current Version | Previous Version | Text Only | Print | Product List | Glossary On
Versions: 1 2 3 4 5 6 7 8 9 10 11 12 13 14 15 16 17 18 19 20 21 22 23 24 25 26 27 28 29 30 31 32 33 34 35 36 37 38 39 40 41 42 43 44 45 46 47 48 49 50
000
ASUS41 KBTV 300330
RWRBTV
VERMONT REGIONAL WEATHER ROUNDUP
NATIONAL WEATHER SERVICE BURLINGTON VT
1100 PM EDT FRI APR 29 2016

NOTE: "FAIR" INDICATES FEW OR NO CLOUDS BELOW 12,000 FEET WITH NO
SIGNIFICANT WEATHER AND/OR OBSTRUCTIONS TO VISIBILITY.

* THESE REPORTS ARE NOT UNDER NWS QUALITY CONTROL AND/OR DO NOT
  REPORT WEATHER SUCH AS PRECIPITATION AND FOG.

VTZ001>019-300400-
_____VERMONT_____


CITY           SKY/WX    TMP DP  RH WIND       PRES   REMARKS
BURLINGTON     FAIR      46  19  34 NW6       30.13S
MONTPELIER     FAIR      43  25  49 CALM      30.15R
MORRISVILLE    FAIR      38  26  62 N5        30.14R
ST. JOHNSBURY*   N/A     44  26  49 MISG      30.10R
LYNDONVILLE*   FAIR      43  16  33 CALM      30.13S
MIDDLEBURY*    FAIR      40  28  63 CALM      30.12S
RUTLAND*       FAIR      45  25  45 N5        30.12R
SPRINGFIELD    CLOUDY    49  37  63 N3        30.10R
HIGHGATE*      FAIR      41  14  34 N3        30.15S
NEWPORT*       FAIR      37  22  56 N8        30.15S WCI  30
BENNINGTON     CLOUDY    49  39  68 CALM      30.10S
GALLUP MILLS*    N/A     34 N/A N/A MISG        N/A
UNION VILLAGE*   N/A     43 N/A N/A MISG        N/A
MT. MANSFIELD*   N/A     37 N/A N/A CALM        N/A

_____LAKE CHAMPLAIN_____


CITY           SKY/WX    TMP DP  RH WIND       PRES   REMARKS
COLCHESTER RF*   N/A     45  32  61 N9          N/A
DIAMOND ISL*     N/A     48  19  32 NW17        N/A

$$

NYZ007-026>031-035-052-083-087-300400-
_____NORTHERN NEW YORK_____


CITY           SKY/WX    TMP DP  RH WIND       PRES   REMARKS
PLATTSBURGH    CLOUDY    45  15  30 NW7       30.15R
SARANAC LAKE   CLOUDY    35  20  54 N3        30.10S
MASSENA        CLEAR     37  26  64 CALM      30.17S
OGDENSBURG*    CLEAR     37  36  93 CALM      30.17R
STARK FALLS*     N/A     39 N/A N/A CALM        N/A
WATERTOWN      CLEAR     43  27  53 CALM      30.16R
FT DRUM        CLOUDY    45  24  45 NE5       30.15R
ALBANY         CLOUDY    52  40  63 W5        30.11S
GLENS FALLS    CLOUDY    50  25  37 NE7       30.12R

$$
NHZ002-005-011-300400-
_____NEW HAMPSHIRE_____


CITY           SKY/WX    TMP DP  RH WIND       PRES   REMARKS
LEBANON        CLOUDY    47  34  60 CALM      30.09R
KEENE          CLOUDY    50  34  53 CALM      30.12S
MT WASHINGTON  MOCLDY    27  21  80 W16         N/A  WCI  14
PLYMOUTH       FAIR      45  35  67 E5        30.13R
WHITEFIELD     CLEAR     37  29  72 CALM      30.11R

$$

_____REGIONAL QUEBEC LOCATIONS_____


CITY           SKY/WX    TMP DP  RH WIND       PRES   REMARKS
MONTREAL       PTCLDY    45  19  36 N5        30.17R
QUEBEC CITY    CLEAR     39   9  28 N9        30.18R
SHERBROOKE     CLEAR     34  18  51 CALM      30.14R

_____REGIONAL ONTARIO LOCATIONS_____


CITY           SKY/WX    TMP DP  RH WIND       PRES   REMARKS
OTTAWA         PTCLDY    45  18  33 N6        30.18R

______KEY______
VSB  - VISIBILITY IN MILES
WCI  - WIND CHILL INDEX
HX   - HEAT INDEX
$$
NNNN



USA.gov is the U.S. government's official web portal to all federal, state and local government web resources and services.